HAZ9841 ZLXN-ZGGG

Flight info

Callsign HAZ9841
Flight time 2h 46m
Altitude 37100
Route UPVOP W111 BIGUX B330 KWE W181 DUDIT A599 GYA
Aircraft B738/M-SADE1E2E3GHIJ1J3J5M1P2RWXY/LB2D1

Departure

Time 2026-04-29 04:22
Airport Xining Caojiabao International Airport (ZLXN)

Arrival

Time 2026-04-29 07:08
Airport Guangzhou Baiyun International Airport (ZGGG)
Time Latitude Longitude Altitude Speed Heading
2026-04-29 03:25 36.52176 102.04919 7194 ft 0 kts 154°
2026-04-29 04:04 36.52187 102.04913 7195 ft 2 kts 150°
2026-04-29 04:04 36.52200 102.04903 7195 ft 2 kts 152°
2026-04-29 04:05 36.52213 102.04895 7195 ft 2 kts 151°
2026-04-29 04:05 36.52226 102.04886 7195 ft 2 kts 151°
2026-04-29 04:05 36.52234 102.04881 7195 ft 0 kts 176°
2026-04-29 04:05 36.52240 102.04882 7195 ft 0 kts 234°
2026-04-29 04:06 36.52242 102.04890 7195 ft 0 kts 282°
2026-04-29 04:06 36.52240 102.04896 7195 ft 1 kts 288°
2026-04-29 04:06 36.52240 102.04899 7195 ft 0 kts 287°
2026-04-29 04:07 36.52239 102.04899 7195 ft 0 kts 287°
2026-04-29 04:11 36.52240 102.04897 7195 ft 1 kts 288°
2026-04-29 04:11 36.52248 102.04864 7195 ft 6 kts 287°
2026-04-29 04:11 36.52298 102.04829 7195 ft 10 kts
2026-04-29 04:12 36.52307 102.04830 7195 ft 0 kts
2026-04-29 04:13 36.52312 102.04831 7195 ft 2 kts 12°
2026-04-29 04:13 36.52351 102.04845 7196 ft 8 kts 18°
2026-04-29 04:13 36.52425 102.04878 7196 ft 14 kts 20°
2026-04-29 04:13 36.52527 102.04869 7196 ft 18 kts 297°
2026-04-29 04:14 36.52575 102.04705 7196 ft 20 kts 289°
2026-04-29 04:14 36.52651 102.04583 7197 ft 17 kts 337°
2026-04-29 04:14 36.52714 102.04475 7197 ft 14 kts 289°
2026-04-29 04:14 36.52746 102.04362 7197 ft 13 kts 289°
2026-04-29 04:15 36.52786 102.04218 7197 ft 23 kts 289°
2026-04-29 04:15 36.52839 102.04031 7197 ft 21 kts 289°
2026-04-29 04:15 36.52886 102.03861 7198 ft 19 kts 289°
2026-04-29 04:15 36.52933 102.03690 7198 ft 24 kts 289°
2026-04-29 04:16 36.52991 102.03487 7198 ft 23 kts 287°
2026-04-29 04:16 36.53040 102.03301 7198 ft 21 kts 289°
2026-04-29 04:16 36.53088 102.03132 7198 ft 19 kts 289°
2026-04-29 04:16 36.53131 102.02980 7199 ft 17 kts 289°
2026-04-29 04:17 36.53173 102.02827 7199 ft 21 kts 288°
2026-04-29 04:17 36.53232 102.02617 7199 ft 29 kts 289°
2026-04-29 04:17 36.53303 102.02357 7199 ft 31 kts 289°
2026-04-29 04:17 36.53355 102.02172 7199 ft 21 kts 288°
2026-04-29 04:18 36.53400 102.02008 7200 ft 18 kts 289°
2026-04-29 04:18 36.53478 102.01916 7200 ft 13 kts
2026-04-29 04:18 36.53490 102.01919 7200 ft 0 kts 14°
2026-04-29 04:19 36.53514 102.01928 7200 ft 8 kts 19°
2026-04-29 04:19 36.53570 102.02014 7200 ft 19 kts 97°
2026-04-29 04:20 36.53560 102.02058 7200 ft 0 kts 109°
2026-04-29 04:20 36.53560 102.02059 7200 ft 0 kts 109°
2026-04-29 04:20 36.53531 102.02161 7200 ft 32 kts 109°
2026-04-29 04:21 36.53387 102.02683 7199 ft 93 kts 109°
2026-04-29 04:21 36.53117 102.03650 7199 ft 143 kts 108°
2026-04-29 04:21 36.52741 102.05011 7211 ft 183 kts 109°
2026-04-29 04:21 36.52247 102.06483 7555 ft 193 kts 114°
2026-04-29 04:22 36.51621 102.08035 7962 ft 203 kts 114°
2026-04-29 04:22 36.51242 102.09656 8664 ft 194 kts 98°
2026-04-29 04:22 36.51001 102.11330 9032 ft 207 kts 102°
2026-04-29 04:22 36.50594 102.13115 9318 ft 223 kts 107°
2026-04-29 04:23 36.50071 102.14990 9704 ft 235 kts 110°
2026-04-29 04:23 36.49517 102.16952 10081 ft 248 kts 110°
2026-04-29 04:23 36.48951 102.19003 10474 ft 260 kts 108°
2026-04-29 04:23 36.48354 102.21207 10919 ft 272 kts 108°
2026-04-29 04:24 36.47764 102.23404 11671 ft 271 kts 107°
2026-04-29 04:24 36.47433 102.25754 11948 ft 287 kts 85°
2026-04-29 04:24 36.47806 102.28223 12353 ft 298 kts 72°
2026-04-29 04:24 36.48420 102.30746 12686 ft 313 kts 71°
2026-04-29 04:25 36.49048 102.33380 13068 ft 327 kts 73°
2026-04-29 04:25 36.49651 102.36212 13396 ft 343 kts 74°
2026-04-29 04:25 36.50219 102.39136 13731 ft 357 kts 75°
2026-04-29 04:25 36.50785 102.42178 14272 ft 365 kts 76°
2026-04-29 04:26 36.51351 102.45266 14913 ft 369 kts 75°
2026-04-29 04:26 36.51867 102.48360 15573 ft 373 kts 80°
2026-04-29 04:26 36.51959 102.51612 16164 ft 379 kts 95°
2026-04-29 04:26 36.51286 102.54748 16768 ft 384 kts 114°
2026-04-29 04:27 36.49905 102.57611 17347 ft 388 kts 125°
2026-04-29 04:27 36.48313 102.60313 17920 ft 392 kts 126°
2026-04-29 04:27 36.46732 102.63115 18477 ft 396 kts 121°
2026-04-29 04:27 36.45544 102.66197 19080 ft 397 kts 108°
2026-04-29 04:28 36.44857 102.69502 19630 ft 399 kts 100°
2026-04-29 04:28 36.44390 102.72871 20182 ft 402 kts 97°
2026-04-29 04:28 36.43999 102.76308 20740 ft 405 kts 96°
2026-04-29 04:28 36.43626 102.79793 21259 ft 408 kts 96°
2026-04-29 04:29 36.43245 102.83310 21804 ft 411 kts 96°
2026-04-29 04:29 36.42846 102.86812 22301 ft 414 kts 97°
2026-04-29 04:29 36.42392 102.90315 22781 ft 418 kts 98°
2026-04-29 04:29 36.41874 102.93916 23271 ft 421 kts 98°
2026-04-29 04:30 36.41341 102.97443 23751 ft 425 kts 99°
2026-04-29 04:30 36.40785 103.01067 24194 ft 429 kts 99°
2026-04-29 04:30 36.39665 103.08341 25139 ft 434 kts 99°
2026-04-29 04:31 36.39093 103.12059 25537 ft 438 kts 98°
2026-04-29 04:31 36.38522 103.15781 25957 ft 441 kts 98°
2026-04-29 04:31 36.37949 103.19513 26315 ft 445 kts 98°
2026-04-29 04:31 36.37375 103.23264 26681 ft 449 kts 98°
2026-04-29 04:32 36.36792 103.27058 27107 ft 451 kts 98°
2026-04-29 04:32 36.36206 103.30874 27523 ft 453 kts 98°
2026-04-29 04:32 36.35615 103.34721 27874 ft 456 kts 98°
2026-04-29 04:32 36.35022 103.38570 28261 ft 459 kts 98°
2026-04-29 04:33 36.34415 103.42506 28632 ft 461 kts 98°
2026-04-29 04:33 36.33815 103.46383 28962 ft 464 kts 98°
2026-04-29 04:33 36.33203 103.50334 29322 ft 466 kts 98°
2026-04-29 04:33 36.32585 103.54295 29673 ft 469 kts 98°
2026-04-29 04:34 36.31965 103.58274 30003 ft 472 kts 98°
2026-04-29 04:34 36.31340 103.62273 30347 ft 474 kts 98°
2026-04-29 04:34 36.30711 103.66280 30644 ft 477 kts 99°
2026-04-29 04:34 36.30077 103.70309 30932 ft 480 kts 99°
2026-04-29 04:35 36.29438 103.74368 31196 ft 483 kts 99°
2026-04-29 04:35 36.28791 103.78464 31494 ft 485 kts 99°
2026-04-29 04:35 36.28145 103.82549 31765 ft 487 kts 99°
2026-04-29 04:35 36.27486 103.86697 32018 ft 490 kts 99°
2026-04-29 04:36 36.26926 103.90218 32250 ft 492 kts 99°
2026-04-29 04:36 36.26858 103.90649 32279 ft 492 kts 99°
2026-04-29 04:36 36.26192 103.94825 32585 ft 493 kts 99°
2026-04-29 04:37 36.25526 103.98980 33011 ft 492 kts 99°
2026-04-29 04:37 36.24867 104.03078 33384 ft 491 kts 99°
2026-04-29 04:37 36.24197 104.07246 33690 ft 491 kts 99°
2026-04-29 04:37 36.23532 104.11378 34032 ft 490 kts 99°
2026-04-29 04:38 36.22825 104.15524 34362 ft 490 kts 101°
2026-04-29 04:38 36.21886 104.19556 34577 ft 492 kts 107°
2026-04-29 04:38 36.20630 104.23485 34784 ft 494 kts 114°
2026-04-29 04:38 36.19042 104.27285 35043 ft 493 kts 120°
2026-04-29 04:39 36.17163 104.30862 35275 ft 493 kts 126°
2026-04-29 04:39 36.15022 104.34167 35487 ft 493 kts 132°
2026-04-29 04:39 36.12622 104.37202 35679 ft 493 kts 138°
2026-04-29 04:39 36.10009 104.39911 35858 ft 492 kts 144°
2026-04-29 04:40 36.07183 104.42298 36009 ft 492 kts 150°
2026-04-29 04:40 36.04151 104.44343 36199 ft 491 kts 156°
2026-04-29 04:40 36.01022 104.45976 36462 ft 488 kts 163°
2026-04-29 04:40 35.97786 104.47214 36736 ft 484 kts 169°
2026-04-29 04:41 35.94503 104.48043 36928 ft 482 kts 175°
2026-04-29 04:41 35.91143 104.48463 37119 ft 479 kts 181°
2026-04-29 04:41 35.87845 104.48428 37258 ft 474 kts 190°
2026-04-29 04:42 35.81528 104.46503 37276 ft 465 kts 204°
2026-04-29 04:42 35.75397 104.43896 37287 ft 463 kts 203°
2026-04-29 04:43 35.69225 104.41569 37287 ft 463 kts 201°
2026-04-29 04:43 35.62988 104.39537 37300 ft 466 kts 199°
2026-04-29 04:44 35.56653 104.37662 37300 ft 467 kts 198°
2026-04-29 04:44 35.50315 104.36052 37311 ft 470 kts 192°
2026-04-29 04:45 35.43731 104.35546 37316 ft 475 kts 185°
2026-04-29 04:45 35.37114 104.35689 37317 ft 475 kts 182°
2026-04-29 04:46 35.30483 104.35939 37337 ft 477 kts 183°
2026-04-29 04:46 35.23820 104.36144 37344 ft 475 kts 183°
2026-04-29 04:47 35.17228 104.36292 37327 ft 474 kts 184°
2026-04-29 04:47 35.10605 104.36411 37348 ft 474 kts 184°
2026-04-29 04:48 35.04020 104.36518 37352 ft 473 kts 184°
2026-04-29 04:48 34.97441 104.36621 37363 ft 474 kts 184°
2026-04-29 04:49 34.90855 104.36723 37355 ft 473 kts 184°
2026-04-29 04:49 34.84224 104.36829 37355 ft 473 kts 184°
2026-04-29 04:50 34.77600 104.36933 37353 ft 473 kts 184°
2026-04-29 04:50 34.71021 104.37035 37352 ft 474 kts 185°
2026-04-29 04:51 34.64436 104.37138 37341 ft 474 kts 184°
2026-04-29 04:51 34.57829 104.37241 37351 ft 474 kts 185°
2026-04-29 04:52 34.51224 104.37344 37345 ft 473 kts 185°
2026-04-29 04:52 34.44624 104.37448 37345 ft 474 kts 185°
2026-04-29 04:53 34.38000 104.37551 37343 ft 474 kts 185°
2026-04-29 04:53 34.31413 104.37656 37343 ft 472 kts 185°
2026-04-29 04:54 34.24846 104.37759 37342 ft 473 kts 185°
2026-04-29 04:54 34.18238 104.37861 37345 ft 472 kts 185°
2026-04-29 04:55 34.11620 104.37962 37341 ft 473 kts 185°
2026-04-29 04:55 34.05067 104.38063 37346 ft 472 kts 186°
2026-04-29 04:56 33.98505 104.38165 37350 ft 472 kts 186°
2026-04-29 04:56 33.91944 104.38268 37369 ft 469 kts 186°
2026-04-29 04:57 33.85363 104.38370 37360 ft 470 kts 186°
2026-04-29 04:57 33.78820 104.38469 37382 ft 472 kts 186°
2026-04-29 04:58 33.72204 104.38570 37381 ft 471 kts 186°
2026-04-29 04:58 33.65643 104.38684 37395 ft 473 kts 185°
2026-04-29 04:59 33.59063 104.39953 37389 ft 488 kts 165°
2026-04-29 04:59 33.52932 104.43625 37393 ft 499 kts 154°
2026-04-29 05:00 33.46939 104.47984 37385 ft 500 kts 152°
2026-04-29 05:00 33.41025 104.52387 37398 ft 499 kts 154°
2026-04-29 05:00 33.37970 104.54256 37378 ft 489 kts 165°
2026-04-29 05:01 33.34706 104.55310 37397 ft 478 kts 178°
2026-04-29 05:01 33.28102 104.56008 37392 ft 474 kts 184°
2026-04-29 05:02 33.21486 104.56265 37386 ft 473 kts 185°
2026-04-29 05:02 33.14910 104.56519 37390 ft 470 kts 185°
2026-04-29 05:03 33.08350 104.56837 37395 ft 473 kts 184°
2026-04-29 05:03 33.01795 104.57207 37379 ft 471 kts 184°
2026-04-29 05:04 32.95214 104.57610 37374 ft 469 kts 184°
2026-04-29 05:04 32.88669 104.58019 37382 ft 472 kts 184°
2026-04-29 05:05 32.82081 104.58437 37383 ft 469 kts 184°
2026-04-29 05:05 32.75507 104.58851 37376 ft 471 kts 184°
2026-04-29 05:06 32.68923 104.59193 37370 ft 470 kts 185°
2026-04-29 05:06 32.62398 104.59473 37374 ft 469 kts 185°
2026-04-29 05:07 32.55823 104.59747 37379 ft 469 kts 186°
2026-04-29 05:07 32.49291 104.60029 37368 ft 470 kts 185°
2026-04-29 05:08 32.42806 104.60323 37354 ft 466 kts 186°
2026-04-29 05:08 32.36288 104.60632 37351 ft 470 kts 185°
2026-04-29 05:09 32.29763 104.60990 37337 ft 468 kts 185°
2026-04-29 05:09 32.23255 104.61358 37325 ft 467 kts 185°
2026-04-29 05:10 32.16730 104.61722 37324 ft 467 kts 185°
2026-04-29 05:10 32.10263 104.62078 37328 ft 466 kts 185°
2026-04-29 05:11 32.03750 104.62430 37323 ft 466 kts 185°
2026-04-29 05:11 31.97243 104.62785 37319 ft 467 kts 186°
2026-04-29 05:12 31.90739 104.63138 37321 ft 465 kts 185°
2026-04-29 05:12 31.84252 104.63493 37302 ft 465 kts 186°
2026-04-29 05:13 31.77762 104.63842 37295 ft 464 kts 185°
2026-04-29 05:13 31.71342 104.64141 37286 ft 465 kts 186°
2026-04-29 05:14 31.64873 104.64388 37275 ft 462 kts 186°
2026-04-29 05:14 31.58461 104.64628 37268 ft 465 kts 186°
2026-04-29 05:15 31.51978 104.64874 37259 ft 464 kts 186°
2026-04-29 05:15 31.45541 104.65125 37260 ft 462 kts 187°
2026-04-29 05:16 31.39097 104.65380 37258 ft 462 kts 187°
2026-04-29 05:16 31.32674 104.65630 37247 ft 463 kts 187°
2026-04-29 05:17 31.26205 104.65884 37249 ft 462 kts 187°
2026-04-29 05:17 31.19784 104.66134 37252 ft 462 kts 187°
2026-04-29 05:18 31.13323 104.66383 37243 ft 466 kts 187°
2026-04-29 05:18 31.06877 104.66640 37241 ft 460 kts 187°
2026-04-29 05:19 31.00420 104.67024 37248 ft 465 kts 184°
2026-04-29 05:19 30.93978 104.67753 37247 ft 468 kts 183°
2026-04-29 05:20 30.87464 104.68562 37244 ft 470 kts 182°
2026-04-29 05:20 30.80973 104.69349 37242 ft 467 kts 182°
2026-04-29 05:21 30.74505 104.70112 37242 ft 467 kts 183°
2026-04-29 05:21 30.68026 104.70853 37240 ft 467 kts 183°
2026-04-29 05:22 30.61529 104.71587 37243 ft 469 kts 183°
2026-04-29 05:22 30.54997 104.72321 37240 ft 466 kts 183°
2026-04-29 05:23 30.48489 104.73045 37245 ft 468 kts 184°
2026-04-29 05:23 30.41968 104.73769 37253 ft 469 kts 184°
2026-04-29 05:24 30.35469 104.74495 37251 ft 468 kts 183°
2026-04-29 05:24 30.28997 104.75214 37254 ft 468 kts 184°
2026-04-29 05:25 30.23614 104.75813 37248 ft 468 kts 184°
2026-04-29 05:25 30.16009 104.76654 37248 ft 468 kts 184°
2026-04-29 05:26 30.09491 104.77372 37242 ft 470 kts 184°
2026-04-29 05:26 30.02948 104.78096 37245 ft 469 kts 184°
2026-04-29 05:27 29.96447 104.78814 37239 ft 471 kts 184°
2026-04-29 05:27 29.86630 104.79898 37239 ft 470 kts 184°
2026-04-29 05:28 29.80033 104.80626 37227 ft 473 kts 184°
2026-04-29 05:28 29.73503 104.81345 37247 ft 472 kts 184°
2026-04-29 05:29 29.66944 104.82070 37294 ft 471 kts 184°
2026-04-29 05:29 29.60429 104.82789 37235 ft 470 kts 183°
2026-04-29 05:30 29.53919 104.83499 37241 ft 474 kts 184°
2026-04-29 05:30 29.47348 104.84216 37239 ft 475 kts 184°
2026-04-29 05:31 29.40708 104.84942 37236 ft 474 kts 183°
2026-04-29 05:31 29.34131 104.85978 37232 ft 483 kts 175°
2026-04-29 05:32 29.27663 104.88368 37237 ft 493 kts 166°
2026-04-29 05:32 29.21316 104.91520 37226 ft 497 kts 162°
2026-04-29 05:33 29.14977 104.94857 37224 ft 499 kts 162°
2026-04-29 05:33 29.08650 104.98156 37217 ft 498 kts 163°
2026-04-29 05:34 29.02298 105.01414 37217 ft 497 kts 163°
2026-04-29 05:34 28.95941 105.04638 37234 ft 497 kts 163°
2026-04-29 05:35 28.89602 105.07825 37231 ft 497 kts 163°
2026-04-29 05:35 28.83234 105.11005 37236 ft 497 kts 163°
2026-04-29 05:36 28.76892 105.14178 37244 ft 496 kts 162°
2026-04-29 05:36 28.70654 105.17709 37240 ft 502 kts 158°
2026-04-29 05:37 28.64516 105.21530 37242 ft 500 kts 158°
2026-04-29 05:37 28.58442 105.25330 37239 ft 501 kts 158°
2026-04-29 05:38 28.52262 105.29133 37237 ft 499 kts 158°
2026-04-29 05:38 28.46132 105.32856 37245 ft 499 kts 159°
2026-04-29 05:39 28.40011 105.36542 37247 ft 501 kts 159°
2026-04-29 05:39 28.33878 105.40232 37259 ft 496 kts 159°
2026-04-29 05:40 28.27756 105.43905 37261 ft 497 kts 158°
2026-04-29 05:40 28.21626 105.47585 37268 ft 497 kts 159°
2026-04-29 05:41 28.15478 105.51265 37266 ft 497 kts 159°
2026-04-29 05:41 28.09355 105.54895 37272 ft 494 kts 160°
2026-04-29 05:42 28.03060 105.57729 37267 ft 480 kts 173°
2026-04-29 05:42 27.96549 105.59132 37278 ft 472 kts 180°
2026-04-29 05:43 27.90042 105.60068 37273 ft 472 kts 181°
2026-04-29 05:43 27.83537 105.60947 37274 ft 472 kts 180°
2026-04-29 05:44 27.77133 105.62865 37280 ft 487 kts 164°
2026-04-29 05:44 27.70962 105.66312 37273 ft 496 kts 158°
2026-04-29 05:45 27.64946 105.70094 37287 ft 492 kts 159°
2026-04-29 05:45 27.58882 105.73594 37292 ft 490 kts 161°
2026-04-29 05:46 27.52697 105.76957 37302 ft 491 kts 162°
2026-04-29 05:46 27.46514 105.80269 37295 ft 490 kts 162°
2026-04-29 05:47 27.40350 105.83569 37298 ft 488 kts 162°
2026-04-29 05:47 27.34205 105.86863 37306 ft 490 kts 162°
2026-04-29 05:48 27.28079 105.90151 37305 ft 489 kts 162°
2026-04-29 05:48 27.21941 105.93433 37304 ft 488 kts 162°
2026-04-29 05:49 27.15822 105.96719 37303 ft 487 kts 162°
2026-04-29 05:49 27.09676 105.99951 37328 ft 488 kts 163°
2026-04-29 05:50 27.03505 106.03066 37401 ft 487 kts 162°
2026-04-29 05:50 27.00581 106.05055 37087 ft 501 kts 148°
2026-04-29 05:50 26.98024 106.07784 36556 ft 507 kts 133°
2026-04-29 05:51 26.96069 106.11006 36856 ft 502 kts 124°
2026-04-29 05:51 26.94390 106.14394 37086 ft 502 kts 121°
2026-04-29 05:51 26.92728 106.17873 37290 ft 501 kts 122°
2026-04-29 05:51 26.91039 106.21247 37340 ft 502 kts 124°
2026-04-29 05:52 26.87284 106.27885 37299 ft 508 kts 129°
2026-04-29 05:52 26.83124 106.34312 37303 ft 511 kts 131°
2026-04-29 05:53 26.78809 106.40665 37299 ft 512 kts 131°
2026-04-29 05:53 26.74485 106.46980 37298 ft 511 kts 131°
2026-04-29 05:54 26.70159 106.53304 37306 ft 511 kts 131°
2026-04-29 05:54 26.65840 106.59635 37304 ft 511 kts 131°
2026-04-29 05:55 26.61558 106.65921 37303 ft 510 kts 132°
2026-04-29 05:55 26.57273 106.72209 37313 ft 510 kts 132°
2026-04-29 05:56 26.52954 106.78463 37316 ft 507 kts 134°
2026-04-29 05:56 26.48234 106.84282 37311 ft 506 kts 140°
2026-04-29 05:57 26.43245 106.89749 37313 ft 502 kts 141°
2026-04-29 05:57 26.38191 106.95159 37299 ft 504 kts 142°
2026-04-29 05:58 26.33174 107.00561 37304 ft 502 kts 141°
2026-04-29 05:58 26.28155 107.06006 37294 ft 503 kts 141°
2026-04-29 05:59 26.23188 107.11441 37290 ft 502 kts 141°
2026-04-29 05:59 26.18215 107.16900 37283 ft 502 kts 141°
2026-04-29 06:00 26.13232 107.22369 37274 ft 503 kts 140°
2026-04-29 06:00 26.08255 107.27826 37266 ft 502 kts 140°
2026-04-29 06:01 26.03305 107.33244 37259 ft 500 kts 141°
2026-04-29 06:01 25.98339 107.38666 37263 ft 500 kts 141°
2026-04-29 06:02 25.93370 107.44086 37257 ft 502 kts 141°
2026-04-29 06:02 25.88404 107.49498 37253 ft 500 kts 141°
2026-04-29 06:03 25.83437 107.54905 37255 ft 499 kts 141°
2026-04-29 06:03 25.78504 107.60266 37257 ft 500 kts 141°
2026-04-29 06:04 25.73534 107.65662 37251 ft 497 kts 141°
2026-04-29 06:04 25.68617 107.71004 37252 ft 496 kts 141°
2026-04-29 06:05 25.63707 107.76373 37245 ft 496 kts 141°
2026-04-29 06:05 25.58788 107.81763 37245 ft 496 kts 141°
2026-04-29 06:06 25.53903 107.87109 37236 ft 494 kts 141°
2026-04-29 06:06 25.48984 107.92341 37226 ft 490 kts 145°
2026-04-29 06:07 25.46285 107.94598 37214 ft 481 kts 156°
2026-04-29 06:07 25.43316 107.96142 37222 ft 468 kts 169°
2026-04-29 06:07 25.36997 107.97533 37201 ft 457 kts 180°
2026-04-29 06:08 25.30726 107.98307 37205 ft 453 kts 181°
2026-04-29 06:08 25.24425 107.99003 37199 ft 453 kts 181°
2026-04-29 06:09 25.18156 107.99712 37198 ft 451 kts 181°
2026-04-29 06:09 25.11881 108.00446 37195 ft 453 kts 180°
2026-04-29 06:10 25.05630 108.01193 37196 ft 453 kts 180°
2026-04-29 06:10 24.99335 108.01957 37189 ft 451 kts 180°
2026-04-29 06:11 24.93109 108.02712 37185 ft 453 kts 180°
2026-04-29 06:11 24.86827 108.03473 37184 ft 450 kts 180°
2026-04-29 06:12 24.80575 108.04232 37182 ft 453 kts 180°
2026-04-29 06:12 24.74304 108.04990 37179 ft 451 kts 180°
2026-04-29 06:13 24.68039 108.05749 37175 ft 450 kts 180°
2026-04-29 06:13 24.61817 108.06503 37176 ft 450 kts 180°
2026-04-29 06:14 24.55561 108.07257 37179 ft 450 kts 180°
2026-04-29 06:14 24.49330 108.08008 37175 ft 451 kts 180°
2026-04-29 06:15 24.43083 108.08768 37171 ft 450 kts 180°
2026-04-29 06:15 24.36866 108.09525 37164 ft 449 kts 180°
2026-04-29 06:16 24.30664 108.10278 37164 ft 450 kts 180°
2026-04-29 06:16 24.24464 108.11031 37163 ft 449 kts 180°
2026-04-29 06:17 24.18257 108.11785 37157 ft 450 kts 180°
2026-04-29 06:17 24.11998 108.12542 37154 ft 449 kts 180°
2026-04-29 06:18 24.05779 108.13294 37150 ft 449 kts 180°
2026-04-29 06:18 23.99573 108.14043 37151 ft 449 kts 179°
2026-04-29 06:19 23.93418 108.15523 37146 ft 461 kts 164°
2026-04-29 06:19 23.90562 108.17117 37151 ft 470 kts 153°
2026-04-29 06:19 23.87931 108.19311 37151 ft 479 kts 143°
2026-04-29 06:20 23.83585 108.24922 37144 ft 491 kts 123°
2026-04-29 06:20 23.82165 108.28285 37149 ft 497 kts 111°
2026-04-29 06:20 23.81331 108.31945 37149 ft 502 kts 101°
2026-04-29 06:21 23.80559 108.39494 37145 ft 502 kts 96°
2026-04-29 06:21 23.80152 108.47109 37143 ft 502 kts 94°
2026-04-29 06:22 23.79810 108.54680 37144 ft 502 kts 94°
2026-04-29 06:22 23.79429 108.62304 37146 ft 504 kts 95°
2026-04-29 06:23 23.79012 108.69889 37141 ft 501 kts 96°
2026-04-29 06:23 23.78573 108.77488 37139 ft 501 kts 96°
2026-04-29 06:24 23.78125 108.85027 37139 ft 501 kts 96°
2026-04-29 06:24 23.77670 108.92578 37141 ft 500 kts 96°
2026-04-29 06:25 23.77209 109.00188 37147 ft 502 kts 96°
2026-04-29 06:25 23.76748 109.07773 37135 ft 501 kts 96°
2026-04-29 06:26 23.76136 109.15320 37135 ft 499 kts 101°
2026-04-29 06:26 23.74902 109.22719 37122 ft 496 kts 104°
2026-04-29 06:27 23.73392 109.30036 37127 ft 496 kts 106°
2026-04-29 06:27 23.71847 109.37300 37128 ft 495 kts 106°
2026-04-29 06:28 23.70312 109.44619 37120 ft 493 kts 105°
2026-04-29 06:28 23.68817 109.51861 37122 ft 493 kts 105°
2026-04-29 06:29 23.67323 109.59167 37122 ft 492 kts 105°
2026-04-29 06:29 23.65832 109.66460 37116 ft 492 kts 106°
2026-04-29 06:30 23.63578 109.77383 37113 ft 491 kts 106°
2026-04-29 06:31 23.62085 109.84587 37117 ft 490 kts 105°
2026-04-29 06:31 23.60578 109.91850 37110 ft 489 kts 105°
2026-04-29 06:32 23.59068 109.99109 37106 ft 487 kts 105°
2026-04-29 06:32 23.57570 110.06290 37106 ft 487 kts 105°
2026-04-29 06:33 23.56066 110.13486 37109 ft 488 kts 105°
2026-04-29 06:33 23.54549 110.20727 37089 ft 487 kts 105°
2026-04-29 06:34 23.53039 110.27921 37090 ft 488 kts 105°
2026-04-29 06:34 23.51529 110.35096 37092 ft 488 kts 105°
2026-04-29 06:35 23.50037 110.42276 37085 ft 489 kts 105°
2026-04-29 06:35 23.48569 110.49513 37084 ft 488 kts 105°
2026-04-29 06:36 23.47108 110.56735 37087 ft 489 kts 105°
2026-04-29 06:36 23.45648 110.63919 37092 ft 489 kts 105°
2026-04-29 06:37 23.44178 110.71121 37096 ft 488 kts 105°
2026-04-29 06:37 23.42689 110.78312 37086 ft 487 kts 105°
2026-04-29 06:38 23.41181 110.85456 37092 ft 487 kts 106°
2026-04-29 06:38 23.39641 110.92702 37088 ft 487 kts 105°
2026-04-29 06:39 23.38125 110.99838 37090 ft 486 kts 105°
2026-04-29 06:39 23.36598 111.07020 37087 ft 487 kts 105°
2026-04-29 06:40 23.35063 111.14223 36598 ft 490 kts 105°
2026-04-29 06:40 23.34301 111.17826 36127 ft 488 kts 105°
2026-04-29 06:40 23.33554 111.21441 35613 ft 483 kts 105°
2026-04-29 06:40 23.32832 111.24989 35168 ft 477 kts 105°
2026-04-29 06:41 23.32122 111.28489 34889 ft 480 kts 105°
2026-04-29 06:41 23.31381 111.32127 34592 ft 490 kts 105°
2026-04-29 06:41 23.30650 111.35709 34298 ft 492 kts 105°
2026-04-29 06:41 23.29907 111.39345 34000 ft 491 kts 105°
2026-04-29 06:42 23.29169 111.42954 33649 ft 492 kts 105°
2026-04-29 06:42 23.28424 111.46584 33239 ft 492 kts 105°
2026-04-29 06:42 23.27679 111.50213 32830 ft 490 kts 105°
2026-04-29 06:42 23.26947 111.53768 32468 ft 486 kts 105°
2026-04-29 06:43 23.26207 111.57331 32104 ft 482 kts 105°
2026-04-29 06:43 23.25462 111.60877 31742 ft 480 kts 105°
2026-04-29 06:43 23.24721 111.64379 31339 ft 478 kts 105°
2026-04-29 06:43 23.23979 111.67875 30925 ft 475 kts 106°
2026-04-29 06:44 23.23237 111.71362 30511 ft 470 kts 106°
2026-04-29 06:44 23.22500 111.74827 30095 ft 467 kts 105°
2026-04-29 06:44 23.21773 111.78243 29685 ft 465 kts 105°
2026-04-29 06:44 23.21052 111.81626 29278 ft 462 kts 105°
2026-04-29 06:45 23.20333 111.85006 28866 ft 458 kts 105°
2026-04-29 06:45 23.19631 111.88347 28468 ft 456 kts 105°
2026-04-29 06:45 23.18930 111.91715 28070 ft 454 kts 105°
2026-04-29 06:45 23.18245 111.95024 27678 ft 452 kts 105°
2026-04-29 06:46 23.17555 111.98360 27282 ft 450 kts 105°
2026-04-29 06:46 23.16869 112.01672 26886 ft 447 kts 105°
2026-04-29 06:46 23.16195 112.04924 26474 ft 442 kts 105°
2026-04-29 06:46 23.15527 112.08142 26011 ft 431 kts 105°
2026-04-29 06:47 23.14882 112.11255 25606 ft 417 kts 105°
2026-04-29 06:47 23.14254 112.14269 25235 ft 409 kts 104°
2026-04-29 06:47 23.13628 112.17265 24806 ft 405 kts 104°
2026-04-29 06:47 23.13007 112.20221 24391 ft 402 kts 105°
2026-04-29 06:48 23.12393 112.23143 23978 ft 399 kts 104°
2026-04-29 06:48 23.11777 112.26063 23571 ft 396 kts 104°
2026-04-29 06:48 23.11159 112.28989 23169 ft 396 kts 104°
2026-04-29 06:48 23.10543 112.31904 22766 ft 394 kts 104°
2026-04-29 06:49 23.09938 112.34763 22369 ft 390 kts 104°
2026-04-29 06:49 23.09332 112.37631 21977 ft 389 kts 104°
2026-04-29 06:49 23.08728 112.40484 21582 ft 387 kts 104°
2026-04-29 06:49 23.08127 112.43316 21188 ft 384 kts 104°
2026-04-29 06:50 23.07436 112.46088 20792 ft 381 kts 110°
2026-04-29 06:50 23.06432 112.48723 20371 ft 376 kts 121°
2026-04-29 06:50 23.05017 112.51066 19925 ft 371 kts 131°
2026-04-29 06:50 23.03365 112.53170 19430 ft 361 kts 135°
2026-04-29 06:51 23.01669 112.55121 18972 ft 352 kts 137°
2026-04-29 06:51 22.99977 112.57005 18507 ft 345 kts 137°
2026-04-29 06:51 22.98315 112.58846 18040 ft 338 kts 137°
2026-04-29 06:51 22.96692 112.60659 17560 ft 332 kts 137°
2026-04-29 06:52 22.95147 112.62466 17094 ft 329 kts 133°
2026-04-29 06:52 22.93855 112.64503 16681 ft 331 kts 117°
2026-04-29 06:52 22.93119 112.66887 16219 ft 334 kts 102°
2026-04-29 06:52 22.92770 112.69360 15770 ft 336 kts 98°
2026-04-29 06:53 22.92497 112.71880 15299 ft 338 kts 97°
2026-04-29 06:53 22.92230 112.74432 14783 ft 337 kts 98°
2026-04-29 06:53 22.91955 112.76920 14323 ft 331 kts 98°
2026-04-29 06:53 22.91671 112.79346 13849 ft 325 kts 98°
2026-04-29 06:54 22.91378 112.81778 13379 ft 321 kts 99°
2026-04-29 06:54 22.91089 112.84143 12928 ft 318 kts 99°
2026-04-29 06:54 22.90799 112.86500 12445 ft 314 kts 99°
2026-04-29 06:54 22.90511 112.88834 11954 ft 313 kts 99°
2026-04-29 06:55 22.90220 112.91196 11464 ft 311 kts 100°
2026-04-29 06:55 22.89939 112.93486 10962 ft 308 kts 100°
2026-04-29 06:55 22.89664 112.95761 10451 ft 305 kts 101°
2026-04-29 06:55 22.89388 112.98041 9947 ft 303 kts 101°
2026-04-29 06:56 22.89114 113.00288 9459 ft 299 kts 101°
2026-04-29 06:56 22.88845 113.02488 8938 ft 295 kts 101°
2026-04-29 06:56 22.88576 113.04661 8431 ft 291 kts 101°
2026-04-29 06:56 22.88306 113.06840 7922 ft 287 kts 101°
2026-04-29 06:57 22.88046 113.08956 7420 ft 284 kts 100°
2026-04-29 06:57 22.87958 113.11058 6939 ft 281 kts 86°
2026-04-29 06:57 22.88512 113.13023 6779 ft 269 kts 54°
2026-04-29 06:57 22.89889 113.14396 6800 ft 269 kts 24°
2026-04-29 06:58 22.91613 113.15047 6731 ft 259 kts
2026-04-29 06:58 22.93338 113.15486 6588 ft 247 kts
2026-04-29 06:58 22.95001 113.15913 6349 ft 246 kts 10°
2026-04-29 06:58 22.96667 113.16354 6065 ft 245 kts 10°
2026-04-29 06:59 22.98327 113.16799 5769 ft 241 kts 10°
2026-04-29 06:59 22.99935 113.17231 5479 ft 238 kts 11°
2026-04-29 06:59 23.01544 113.17663 5199 ft 234 kts 10°
2026-04-29 06:59 23.03105 113.18081 4920 ft 230 kts 11°
2026-04-29 07:00 23.04641 113.18491 4629 ft 224 kts 11°
2026-04-29 07:00 23.06146 113.18893 4347 ft 220 kts 11°
2026-04-29 07:00 23.07638 113.19292 4033 ft 218 kts 11°
2026-04-29 07:00 23.09092 113.19685 3787 ft 209 kts 11°
2026-04-29 07:01 23.10448 113.20053 3803 ft 195 kts 11°
2026-04-29 07:01 23.11764 113.20403 3815 ft 193 kts 10°
2026-04-29 07:01 23.13062 113.20747 3809 ft 192 kts 11°
2026-04-29 07:01 23.14354 113.21114 3820 ft 188 kts 12°
2026-04-29 07:02 23.15592 113.21485 3819 ft 184 kts 11°
2026-04-29 07:02 23.16831 113.21832 3817 ft 177 kts 11°
2026-04-29 07:02 23.18002 113.22152 3810 ft 171 kts 10°
2026-04-29 07:02 23.19150 113.22460 3805 ft 170 kts 10°
2026-04-29 07:03 23.20306 113.22768 3663 ft 169 kts 10°
2026-04-29 07:03 23.21439 113.23073 3381 ft 165 kts 10°
2026-04-29 07:03 23.22527 113.23365 3127 ft 156 kts 10°
2026-04-29 07:03 23.23601 113.23652 2954 ft 160 kts 11°
2026-04-29 07:04 23.24673 113.23940 2709 ft 157 kts 11°
2026-04-29 07:04 23.25727 113.24223 2504 ft 157 kts 11°
2026-04-29 07:04 23.26788 113.24506 2293 ft 155 kts 11°
2026-04-29 07:04 23.27818 113.24783 2091 ft 153 kts 11°
2026-04-29 07:05 23.28852 113.25060 1889 ft 150 kts 11°
2026-04-29 07:05 23.29855 113.25329 1691 ft 148 kts 11°
2026-04-29 07:05 23.30862 113.25598 1491 ft 146 kts 11°
2026-04-29 07:05 23.31803 113.25853 1267 ft 132 kts 11°
2026-04-29 07:06 23.32674 113.26085 1160 ft 128 kts 11°
2026-04-29 07:06 23.33539 113.26317 961 ft 128 kts 11°
2026-04-29 07:06 23.34409 113.26553 802 ft 128 kts 11°
2026-04-29 07:06 23.35290 113.26787 631 ft 129 kts 11°
2026-04-29 07:07 23.36151 113.27020 467 ft 129 kts 11°
2026-04-29 07:07 23.37026 113.27252 299 ft 129 kts 11°
2026-04-29 07:07 23.37909 113.27490 126 ft 129 kts 11°
2026-04-29 07:07 23.38751 113.27716 53 ft 119 kts
2026-04-29 07:08 23.39574 113.27923 53 ft 121 kts 14°
2026-04-29 07:08 23.40264 113.28117 53 ft 81 kts 13°
2026-04-29 07:08 23.40569 113.28252 53 ft 25 kts 88°
2026-04-29 07:08 23.40552 113.28369 53 ft 10 kts 102°
2026-04-29 07:09 23.40533 113.28433 53 ft 6 kts 163°
2026-04-29 07:09 23.40487 113.28416 53 ft 9 kts 215°
2026-04-29 07:09 23.40397 113.28339 53 ft 25 kts 198°
2026-04-29 07:09 23.40189 113.28284 53 ft 31 kts 193°
2026-04-29 07:10 23.39963 113.28221 53 ft 36 kts 194°
2026-04-29 07:10 23.39877 113.28198 53 ft 0 kts 193°
2026-04-29 07:10 23.39813 113.28180 53 ft 26 kts 194°
2026-04-29 07:10 23.39556 113.28108 53 ft 42 kts 194°
2026-04-29 07:11 23.39269 113.28029 53 ft 42 kts 195°
2026-04-29 07:11 23.38991 113.27955 53 ft 40 kts 191°
2026-04-29 07:11 23.38717 113.27884 53 ft 39 kts 193°
2026-04-29 07:11 23.38469 113.27823 53 ft 29 kts 185°
2026-04-29 07:12 23.38375 113.27978 53 ft 29 kts 103°
2026-04-29 07:12 23.38321 113.28260 53 ft 41 kts 79°
2026-04-29 07:12 23.38384 113.28345 53 ft 3 kts 27°
2026-04-29 07:12 23.38469 113.28374 53 ft 16 kts
2026-04-29 07:13 23.38470 113.28311 53 ft 13 kts 208°
2026-04-29 07:13 23.38385 113.28278 53 ft 12 kts 197°
2026-04-29 07:13 23.38264 113.28255 53 ft 31 kts 195°
2026-04-29 07:13 23.37944 113.28119 53 ft 62 kts 193°
2026-04-29 07:14 23.37518 113.28003 53 ft 62 kts 193°
2026-04-29 07:14 23.37116 113.27889 53 ft 47 kts 193°
2026-04-29 07:14 23.36880 113.28001 53 ft 45 kts 106°
2026-04-29 07:14 23.36844 113.28360 53 ft 48 kts 55°
2026-04-29 07:15 23.37137 113.28481 53 ft 48 kts 12°
2026-04-29 07:15 23.37549 113.28591 53 ft 65 kts 13°
2026-04-29 07:15 23.37953 113.28698 53 ft 51 kts 12°
2026-04-29 07:15 23.38121 113.28830 53 ft 18 kts 32°
2026-04-29 07:16 23.38286 113.28879 53 ft 40 kts 11°
2026-04-29 07:16 23.38476 113.28934 53 ft 0 kts 15°
2026-04-29 07:16 23.38539 113.28951 53 ft 18 kts 13°
2026-04-29 07:16 23.38672 113.28985 53 ft 36 kts 13°
2026-04-29 07:17 23.38862 113.29060 53 ft 22 kts 66°
2026-04-29 07:17 23.38867 113.29213 53 ft 17 kts 90°
2026-04-29 07:17 23.38916 113.29268 53 ft 10 kts
2026-04-29 07:17 23.38943 113.29269 53 ft 0 kts 359°
2026-04-29 07:18 23.38949 113.29269 53 ft 0 kts